Location: *
(38.4303°S, 157.0822°W)
Time: 13:46:11
(UTC+00:00)

Cosmos 1461 - Pass Details

Date: 21 May 2024
Orbit: 499 x 580 km, 65.0° (Epoch: 22 June)

Event Time Altitude Azimuth Distance (km) Brightness Sun altitude
Exits shadow 15:15:26 39° 153° (SSE) 892 3.9 -25.8°
Maximum altitude 15:16:10 43° 125° (SE) 836 4.0 -25.7°
Drops below altitude 10° 15:20:17 10° 53° (NE) 1,903 6.3 -24.9°
Sets 15:22:35 0° 46° (NE) 2,787 7.2 -24.5°
